This demonstration page uses our WeatherBlox Daily Observations layout. Learn more.

Left ArrowRight Arrow

Hourly Observations for September 30, 2018

Temp ( °F °C ) Dew Point ( °F °C ) Humidity (%) Winds ( mph kmh ) Pressure ( in mb ) Visibility ( mi km ) Precip ( " mm )
12:27 am 00:27 Cloudy 50 10 48 9 94 94 ENE 8 13 30.09 1019 10 16 0.00 0.00
12:47 am 00:47 Cloudy 50 10 48 9 94 94 NE 9 15 30.09 1019 10 16 0.00 0.00
12:57 am 00:57 Cloudy 50 10 49 9.4 96 96 NE 9 15 30.09 1019 8 13 0.00 0.00
1:57 am 01:57 Cloudy 50 10 49 9.4 96 96 NNE 9 15 30.10 1019 10 16 0.00 0.00
2:57 am 02:57 Cloudy 50 10 49 9.4 96 96 NNE 13 20 30.10 1019 10 16 0.00 0.00
3:09 am 03:09 Cloudy 50 10 48 9 94 94 NNE 12 19 30.09 1019 10 16 0.00 0.00
3:57 am 03:57 Cloudy 50 10 48 8.9 93 93 NE 10 17 30.11 1020 10 16 0.00 0.00
4:27 am 04:27 Cloudy 50 10 48 9 94 94 NE 13 20 30.12 1020 8 13 0.00 0.00
4:37 am 04:37 Cloudy with Mist and Fog 50 10 48 9 94 94 NE 9 15 30.12 1020 5 8 0.00 0.00
4:57 am 04:57 Cloudy with Mist and Fog 49 9.4 48 8.9 97 97 NE 14 22 30.12 1020 6 10 0.00 0.00
5:49 am 05:49 Cloudy with Mist and Fog 48 9 48 9 100 100 NNE 12 19 30.15 1021 3 4 0.00 0.00
5:57 am 05:57 Cloudy with Light Rain 48 8.9 48 8.9 100 100 NNE 14 22 30.14 1021 3 4 0.00 0.03
6:28 am 06:28 Cloudy with Mist and Fog 48 9 46 8 94 94 NE 16 26 30.18 1022 3 5 0.01 0.25
6:57 am 06:57 Cloudy with Light Rain 47 8.3 47 8.3 100 100 NE 14 22 30.16 1022 3 5 0.01 0.25
7:24 am 07:24 Cloudy with Light Rain 46 8 46 8 100 100 NE 13 20 30.18 1022 4 6 0.00 0.03
7:57 am 07:57 Cloudy with Light Rain 47 8.3 46 7.8 97 97 NE 15 24 30.17 1022 3 4 0.01 0.25
8:06 am 08:06 Cloudy with Light Rain 46 8 46 8 100 100 NE 15 24 30.21 1023 4 6 0.00 0.03
8:57 am 08:57 Cloudy with Mist and Fog 47 8.3 46 7.8 97 97 NE 14 22 30.18 1022 4 6 0.00 0.03
9:06 am 09:06 Cloudy with Light Rain 46 8 46 8 100 100 NNE 17 28 30.21 1023 2 3 0.00 0.03
9:17 am 09:17 Cloudy with Light Rain 46 8 46 8 100 100 NE 13 20 30.21 1023 3 5 0.00 0.03
9:35 am 09:35 Cloudy with Light Rain 46 8 46 8 100 100 NE 16 26 30.21 1023 3 4 0.00 0.00
9:44 am 09:44 Cloudy with Light Rain 46 8 46 8 100 100 NE 14 22 30.24 1024 4 6 0.00 0.03
9:57 am 09:57 Cloudy with Light Rain 47 8.3 46 7.8 97 97 NE 14 22 30.20 1023 4 6 0.01 0.25
10:57 am 10:57 Cloudy with Light Rain 47 8.3 46 7.8 97 97 NE 14 22 30.21 1023 5 8 0.00 0.03
11:57 am 11:57 Cloudy with Light Rain 47 8.3 46 7.8 97 97 NE 16 26 30.21 1023 5 8 0.01 0.25
12:57 pm 12:57 Cloudy 48 8.9 46 7.8 93 93 NE 14 22 30.20 1023 9 14 0.00 0.03
1:57 pm 13:57 Cloudy 48 8.9 46 7.8 93 93 NE 14 22 30.18 1022 10 16 0.00 0.00
2:49 pm 14:49 Cloudy with Mist and Fog 48 9 46 8 94 94 NNE 13 20 30.18 1022 3 5 0.00 0.00
2:57 pm 14:57 Cloudy 49 9.4 47 8.3 93 93 NE 13 20 30.16 1022 7 11 0.00 0.00
3:31 pm 15:31 Cloudy 48 9 46 8 94 94 NE 15 24 30.18 1022 10 16 0.00 0.00
3:41 pm 15:41 Cloudy 48 9 46 8 94 94 NE 14 22 30.18 1022 7 11 0.00 0.00
3:57 pm 15:57 Cloudy 49 9.4 47 8.3 93 93 NE 15 24 30.16 1022 10 16 0.00 0.00
4:22 pm 16:22 Cloudy 48 9 46 8 94 94 NE 13 20 30.18 1022 10 16 0.00 0.00
4:37 pm 16:37 Cloudy with Mist and Fog 48 9 46 8 94 94 NE 14 22 30.18 1022 6 10 0.00 0.00
4:57 pm 16:57 Cloudy with Mist and Fog 48 8.9 47 8.3 96 96 NE 12 19 30.17 1022 4 6 0.00 0.00
5:57 pm 17:57 Cloudy with Mist and Fog 48 8.9 46 7.8 93 93 NNE 14 22 30.16 1021 5 8 0.00 0.00
7:57 pm 19:57 Cloudy 47 8.3 45 7.2 93 93 NE 15 24 30.15 1021 10 16 0.00 0.00
8:57 pm 20:57 Cloudy 47 8.3 45 7.2 93 93 NE 16 26 30.17 1022 10 16 0.00 0.00
9:57 pm 21:57 Cloudy 47 8.3 45 7.2 93 93 ENE 14 22 30.18 1022 9 14 0.00 0.00
10:07 pm 22:07 Cloudy with Light Rain 46 8 45 7 93 93 ENE 14 22 30.21 1023 8 13 0.00 0.03
10:57 pm 22:57 Cloudy with Light Rain 46 7.8 46 7.8 100 100 ENE 10 17 30.19 1022 5 8 0.01 0.25
11:57 pm 23:57 Cloudy with Light Rain 46 7.8 45 7.2 96 96 NE 8 13 30.18 1022 4 6 0.00 0.03

Powered by AerisWeather